| time (UTC) | temp F | wind direction | speed MPH | gust MPH | rain 1hr in | rain 24hr in | rain mn in | humidity % | barometer mb |
| 20260507021602 | 57 | 118 | 0.0 | 3.0 | 0.00 | 0.00 | 0.00 | 51 | 1057.6 |
| 20260507014603 | 59 | 88 | 0.0 | 7.0 | 0.00 | 0.00 | 0.00 | 48 | 1057.2 |
| 20260507011603 | 61 | 131 | 2.0 | 8.0 | 0.00 | 0.00 | 0.00 | 45 | 1056.9 |
| 20260507004602 | 62 | 51 | 3.0 | 5.0 | 0.00 | 0.00 | 0.00 | 44 | 1056.9 |
| 20260507001602 | 63 | 71 | 2.0 | 8.0 | 0.00 | 0.00 | 0.00 | 44 | 1056.6 |
| 20260506234602 | 64 | 124 | 4.0 | 5.0 | 0.00 | 0.00 | 0.00 | 43 | 1056.2 |
| 20260506233102 | 66 | 74 | 2.0 | 3.0 | 0.00 | 0.00 | 0.00 | 42 | 1056.2 |
| 20260506231602 | 65 | 84 | 5.0 | 9.0 | 0.00 | 0.00 | 0.00 | 41 | 1055.9 |
| 20260506230103 | 66 | 85 | 4.0 | 10.0 | 0.00 | 0.00 | 0.00 | 40 | 1055.9 |
| 20260506224602 | 66 | 323 | 2.0 | 8.0 | 0.00 | 0.00 | 0.00 | 41 | 1055.5 |
| 20260506222602 | 66 | 33 | 4.0 | 9.0 | 0.00 | 0.00 | 0.00 | 41 | 1055.5 |
| 20260506221102 | 65 | 73 | 3.0 | 8.0 | 0.00 | 0.00 | 0.00 | 42 | 1055.5 |
| 20260506215602 | 65 | 91 | 5.0 | 10.0 | 0.00 | 0.00 | 0.00 | 41 | 1055.5 |
| 20260506214102 | 65 | 103 | 6.0 | 12.0 | 0.00 | 0.00 | 0.00 | 41 | 1055.5 |
| 20260506212602 | 66 | 74 | 3.0 | 6.0 | 0.00 | 0.00 | 0.00 | 42 | 1055.9 |
| 20260506211103 | 65 | 57 | 2.0 | 9.0 | 0.00 | 0.00 | 0.00 | 44 | 1055.9 |
| 20260506201602 | 65 | 55 | 5.0 | 10.0 | 0.00 | 0.00 | 0.00 | 45 | 1056.2 |
| 20260506194603 | 64 | 60 | 4.0 | 9.0 | 0.00 | 0.00 | 0.00 | 45 | 1056.6 |
| 20260506193102 | 61 | 48 | 4.0 | 13.0 | 0.00 | 0.00 | 0.00 | 49 | 1056.9 |
| 20260506191602 | 61 | 32 | 5.0 | 10.0 | 0.00 | 0.00 | 0.00 | 51 | 1056.9 |
| 20260506184602 | 61 | 66 | 8.0 | 9.0 | 0.00 | 0.00 | 0.00 | 49 | 1056.9 |
| 20260506183102 | 60 | 99 | 6.0 | 8.0 | 0.00 | 0.00 | 0.00 | 50 | 1057.2 |
| 20260506182102 | 60 | 96 | 9.0 | 12.0 | 0.00 | 0.00 | 0.00 | 50 | 1057.2 |
| 20260506180602 | 61 | 72 | 6.0 | 10.0 | 0.00 | 0.00 | 0.00 | 49 | 1057.6 |
| 20260506175102 | 61 | 65 | 5.0 | 12.0 | 0.00 | 0.00 | 0.00 | 50 | 1057.6 |
| 20260506173603 | 61 | 90 | 6.0 | 11.0 | 0.00 | 0.00 | 0.00 | 49 | 1057.6 |
| 20260506172102 | 63 | 82 | 7.0 | 10.0 | 0.00 | 0.00 | 0.00 | 48 | 1057.6 |
| 20260506170602 | 61 | 80 | 7.0 | 16.0 | 0.00 | 0.00 | 0.00 | 49 | 1057.6 |
| 20260506165102 | 59 | 108 | 5.0 | 15.0 | 0.00 | 0.00 | 0.00 | 51 | 1057.6 |
| 20260506163602 | 60 | 78 | 11.0 | 14.0 | 0.00 | 0.00 | 0.00 | 50 | 1057.9 |
| 20260506162102 | 59 | 94 | 7.0 | 12.0 | 0.00 | 0.00 | 0.00 | 52 | 1057.9 |
| 20260506160602 | 58 | 39 | 9.0 | 15.0 | 0.00 | 0.00 | 0.00 | 53 | 1057.6 |
| 20260506155102 | 58 | 52 | 8.0 | 11.0 | 0.00 | 0.00 | 0.00 | 55 | 1057.6 |
| 20260506153602 | 56 | 85 | 8.0 | 12.0 | 0.00 | 0.00 | 0.00 | 57 | 1057.6 |
| 20260506150602 | 54 | 25 | 4.0 | 13.0 | 0.00 | 0.00 | 0.00 | 62 | 1057.6 |
| 20260506145103 | 53 | 99 | 14.0 | 14.0 | 0.00 | 0.00 | 0.00 | 65 | 1057.2 |
| 20260506143603 | 51 | 66 | 11.0 | 14.0 | 0.00 | 0.00 | 0.00 | 69 | 1057.2 |
| 20260506142102 | 51 | 99 | 7.0 | 8.0 | 0.00 | 0.00 | 0.00 | 71 | 1056.9 |
| 20260506140602 | 51 | 90 | 5.0 | 8.0 | 0.00 | 0.00 | 0.00 | 71 | 1057.2 |
| 20260506135102 | 50 | 70 | 4.0 | 10.0 | 0.00 | 0.00 | 0.00 | 73 | 1057.2 |
| 20260506132102 | 49 | 81 | 6.0 | 9.0 | 0.00 | 0.00 | 0.00 | 75 | 1057.2 |
| 20260506130603 | 49 | 101 | 4.0 | 8.0 | 0.00 | 0.00 | 0.00 | 76 | 1056.9 |
| 20260506125102 | 49 | 177 | 1.0 | 7.0 | 0.00 | 0.00 | 0.00 | 76 | 1056.9 |
| 20260506122602 | 48 | 110 | 7.0 | 8.0 | 0.00 | 0.00 | 0.00 | 78 | 1056.6 |
| 20260506121102 | 48 | 55 | 2.0 | 8.0 | 0.00 | 0.00 | 0.00 | 78 | 1055.9 |
| 20260506115602 | 48 | 75 | 4.0 | 6.0 | 0.00 | 0.00 | 0.00 | 79 | 1055.9 |
| 20260506114102 | 48 | 53 | 5.0 | 5.0 | 0.00 | 0.00 | 0.00 | 79 | 1055.9 |
| 20260506112602 | 48 | 3 | 2.0 | 6.0 | 0.00 | 0.00 | 0.00 | 78 | 1055.9 |
| 20260506111103 | 48 | 84 | 3.0 | 8.0 | 0.00 | 0.00 | 0.00 | 77 | 1055.5 |
| 20260506105602 | 48 | 50 | 4.0 | 5.0 | 0.00 | 0.00 | 0.00 | 76 | 1055.5 |
| 20260506104102 | 48 | 52 | 2.0 | 5.0 | 0.00 | 0.00 | 0.00 | 75 | 1056.6 |
| 20260506103102 | 49 | 66 | 2.0 | 8.0 | 0.00 | 0.00 | 0.00 | 75 | 1056.2 |
| 20260506101602 | 49 | 82 | 3.0 | 7.0 | 0.00 | 0.00 | 0.00 | 75 | 1055.9 |
| 20260506094602 | 49 | 216 | 2.0 | 5.0 | 0.00 | 0.00 | 0.00 | 74 | 1055.5 |
| 20260506093102 | 49 | 303 | 0.0 | 3.0 | 0.00 | 0.00 | 0.00 | 73 | 1054.9 |
| 20260506091602 | 49 | 140 | 0.0 | 5.0 | 0.00 | 0.00 | 0.00 | 72 | 1054.9 |
| 20260506081602 | 49 | 22 | 3.0 | 5.0 | 0.00 | 0.00 | 0.00 | 70 | 1053.8 |
| 20260506080602 | 49 | 306 | 3.0 | 6.0 | 0.00 | 0.00 | 0.00 | 70 | 1053.8 |
| 20260506072602 | 49 | 48 | 3.0 | 9.0 | 0.00 | 0.00 | 0.00 | 69 | 1053.2 |
| 20260506061602 | 49 | 302 | 4.0 | 9.0 | 0.00 | 0.00 | 0.00 | 68 | 1053.5 |
| 20260506042102 | 49 | 36 | 7.0 | 11.0 | 0.00 | 0.00 | 0.00 | 69 | 1053.2 |
| 20260506041102 | 49 | 42 | 2.0 | 8.0 | 0.00 | 0.00 | 0.00 | 70 | 1053.2 |
| 20260506035602 | 49 | 86 | 4.0 | 10.0 | 0.00 | 0.00 | 0.00 | 72 | 1053.2 |
| 20260506034102 | 49 | 76 | 4.0 | 9.0 | 0.00 | 0.00 | 0.00 | 74 | 1052.8 |
| 20260506032602 | 49 | 43 | 5.0 | 7.0 | 0.00 | 0.00 | 0.00 | 77 | 1052.2 |
| 20260506031103 | 49 | 76 | 3.0 | 11.0 | 0.00 | 0.00 | 0.00 | 76 | 1052.2 |
| 20260506025602 | 49 | 357 | 6.0 | 9.0 | 0.00 | 0.00 | 0.00 | 77 | 1052.2 |
| 20260506024102 | 49 | 282 | 2.0 | 7.0 | 0.00 | 0.00 | 0.00 | 77 | 1052.5 |